User: anonymous   Login
Location: downtown San Diego
(32.7310°N, 117.1990°W)
Time: 07:30:29
(UTC-07:00)
Language:

Cosmos 1844 Rocket - Orbit

View from above orbital plane
View from above orbital plane
View from above satellite
View from above satellite

Ground track
Ground track

The orbit data is extracted from the following two-line orbital elements,

1 17974U 87041B   18293.23884321 -.00000159  00000-0 -54863-4 0  9999
2 17974  71.0081 317.3477 0014060 355.2405  73.9804 14.17247624626119
Epoch (UTC): 20 October 2018 05:43:56
Eccentricity: 0.0014060
inclination: 71.0081°
perigee height: 824 km
apogee height: 845 km
right ascension of ascending node: 317.3477°
argument of perigee: 355.2405°
revolutions per day: 14.17247624
mean anomaly at epoch: 73.9804°
orbit number at epoch: 62611

The dashed part of the orbit path shows where the satellite is in the earth's shadow,  

DLR